Regional Weather Roundup
Issued by NWS Bismarck, ND

Home | Current Version | Previous Version | Text Only | Print | Product List | Glossary On
Versions: 1 2 3 4 5 6 7 8 9 10 11 12 13 14 15 16 17 18 19 20 21 22 23 24 25 26 27 28 29 30 31 32 33 34 35 36 37 38 39 40 41 42 43 44 45 46 47 48 49 50
000
ASUS43 KBIS 210120
RWRBIS

NWR BROADCAST TEXT
NATIONAL WEATHER SERVICE BISMARCK ND
800 PM CDT WED AUG 20 2014

NOTE: "FAIR" INDICATES FEW OR NO CLOUDS BELOW 12,000 FEET WITH NO
SIGNIFICANT WEATHER AND/OR OBSTRUCTIONS TO VISIBILITY.


CITY           SKY/WX    TMP DP  RH WIND       PRES   REMARKS
WILLISTON      MOCLDY    72  62  71 SE3       29.74S
MINOT          CLOUDY    68  64  87 E9        29.73S
MINOT AFB      CLOUDY    70  69  96 E8        29.74R
BISMARCK       LGT RAIN  69  66  90 NW12      29.74R
DICKINSON      MOCLDY    71  63  75 N7        29.75S
GARRISON         N/A     70  68  93 N3        29.73S
HETTINGER ARPT MOCLDY    66  63  90 N9        29.76F
JAMESTOWN      CLOUDY    76  68  76 E9        29.76R
BEACH            N/A     66  64  94 NW3       29.80F
CARRINGTON     FAIR      75  73  94 SE9       29.77R
CROSBY         FAIR      68  68 100 CALM      29.75S
HARVEY         LGT RAIN  72  72 100 SW7       29.75R
HAZEN          MOCLDY    68  66  94 NE3       29.72F
LINTON         FAIR      75  70  83 E12       29.69F
MANDAN         LGT RAIN  66  64  94 N10       29.77R
RUGBY          FAIR      75  66  73 SE10      29.74R
STANLEY        MOCLDY    70  68  94 CALM      29.76S
TIOGA          CLOUDY    66  66 100 CALM      29.79S
WATFORD CITY   CLOUDY    70  61  73 CALM      29.73F
$$

CITY           SKY/WX    TMP DP  RH WIND       PRES   REMARKS
GRAND FORKS    MOCLDY    78  68  71 SE6       29.77S
GRAND FORKS AF MOCLDY    77  70  78 SE7       29.79R
DEVILS LAKE    CLOUDY    75  66  73 SE13      29.74F
FARGO          MOCLDY    78  68  71 E8        29.77R
CANDO          FAIR      73  68  83 SE9       29.76F
CAVALIER       FAIR      77  68  73 SE7       29.76F
GRAFTON        FAIR      75  70  83 SE5       29.77F
GWINNER        CLEAR     75  70  83 E9        29.77R
LANGDON        FAIR      73  66  78 SE10      29.77F
ROLLA          FAIR      72  72 100 SE13      29.76F
WALHALLA         N/A     73  70  88 S3        29.75F
$$

CITY           SKY/WX    TMP DP  RH WIND       PRES   REMARKS
ABERDEEN       CLOUDY    76  68  76 SE10      29.71F
MOBRIDGE       MOCLDY    77  69  76 E15       29.65S
BUFFALO          N/A     74  59  59 N12       29.74R
RAPID CITY     CLEAR     80  56  43 N14       29.76R
GLASGOW        SUNNY     79  54  41 W6        29.75S
SIDNEY         MOCLDY    72  64  78 SW3       29.77R
WOLF POINT     PTCLDY    80  56  43 CALM      29.75S
GLENDIVE       MOCLDY    72  61  68 S7        29.80R
MILES CITY     MOCLDY    80  50  34 N7        29.79R
BAKER          PTCLDY    71  58  63 NE3       29.82R
$$

CITY           SKY/WX    TMP DP  RH WIND       PRES   REMARKS
BILLINGS       MOSUNNY   78  47  33 NE9       29.82S
GREAT FALLS    CLOUDY    70  49  47 S10       29.85R
REGINA         MOCLDY    70  64  83 NW3       29.75S
ESTEVAN        LGT RAIN  68  66  94 CALM      29.75S
$$



USA.gov is the U.S. government's official web portal to all federal, state and local government web resources and services.